Temp
82 75 73 79 83 85 85 83 77 76 77 74 67 65 69 80 82 82 83 84 85 87 91 93 94 94 94 91 88 88 86 84 85 85 85 86 83 83 82 75 83 85 85 86
79 72 83 87 87 84 83 83 77 77 80 72 68 62 70 81 82 83 83 82 83 82 86 91 92 93 92 88 87 86 85 84 85 86 86 86 81 85 83 75 80 89 84 86
75 80 87 85 84 81 82 82 76 67 68 84 76 60 55 79 85 83 83 85 85 83 83 89 91 91 92 87 86 86 84 83 85 87 88 78 74 74 81 80 83 86 87 88
79 87 84 83 81 84 77 88 85 78 76 73 84 64 69 76 74 71 73 82 84 86 89 91 92 91 91 89 89 86 85 83 85 85 84 83 78 76 80 81 83 85 86 87
77 81 81 79 81 86 80 90 81 81 78 80 80 71 75 76 65 64 66 81 85 89 90 91 89 91 93 91 90 87 85 83 85 85 84 83 81 76 74 79 74 82 85 89
82 90 87 85 87 88 89 85 85 82 79 69 77 76 71 70 62 67 68 83 84 85 87 88 91 94 94 92 91 88 84 82 84 84 85 82 76 74 75 77 76 78 83 85
78 81 87 87 81 86 84 80 68 64 66 66 81 76 67 65 64 76 75 86 80 78 79 89 89 91 89 89 90 87 83 81 83 84 84 84 82 82 72 75 75 82 84 78
68 66 79 86 82 79 80 80 69 57 62 68 80 65 71 85 89 91 89 90 81 73 72 90 89 90 78 90 89 87 82 81 83 84 83 84 84 82 85 79 87 86 86 81
69 70 84 86 87 84 78 73 85 75 77 71 69 72 79 84 85 87 83 80 74 83 83 72 86 91 85 83 86 86 83 82 83 84 84 84 84 84 86 86 86 86 85 78
74 63 81 81 85 84 79 86 72 75 60 60 65 65 66 75 74 78 75 76 72 76 76 70 70 73 72 78 90 88 85 83 84 85 85 85 85 85 85 86 85 86 82 77
77 71 71 79 74 73 75 73 76 78 75 64 58 62 79 77 74 72 71 71 72 75 76 75 70 69 67 74 80 89 87 86 85 86 85 85 85 86 85 86 87 86 84 80
78 74 65 71 81 83 82 77 78 67 65 71 56 60 68 75 76 72 70 70 72 74 77 77 77 74 72 72 72 72 74 82 89 88 87 86 86 86 86 85 87 86 85 84
72 71 62 66 73 78 74 78 81 81 80 61 60 59 67 67 71 73 70 71 72 73 74 76 77 77 75 75 71 72 73 74 72 84 89 85 86 86 85 85 86 87 85 85
71 71 63 55 62 73 69 74 78 78 69 71 61 65 71 67 68 72 74 75 75 74 74 75 76 76 76 76 75 72 71 76 79 73 74 83 83 85 87 86 85 86 86 84
74 62 67 69 71 73 74 73 76 72 74 60 62 64 65 70 69 71 74 74 73 73 73 73 74 75 76 76 75 75 74 72 75 73 72 73 72 82 84 84 85 86 86 86
74 63 66 65 70 71 69 75 76 75 75 68 67 58 65 70 71 70 73 72 71 72 73 73 74 75 76 75 75 75 75 75 72 72 70 72 74 73 82 84 84 84 85 85
67 66 62 58 67 64 60 69 71 72 75 69 59 60 71 70 71 70 71 71 70 71 72 73 74 74 76 77 75 75 76 76 73 72 71 70 73 73 72 78 81 83 82 82
66 63 63 58 62 48 65 74 76 74 75 74 72 69 72 72 73 73 73 71 70 71 72 73 75 75 77 78 77 75 77 76 73 72 71 70 69 71 72 72 74 76 78 79
72 65 59 54 56 62 65 66 69 70 68 74 72 71 73 74 72 68 72 73 71 72 73 74 75 76 76 76 76 74 75 74 75 73 71 70 70 67 70 72 72 72 74 76
69 67 60 59 52 48 62 71 74 73 59 73 72 71 71 72 62 64 71 73 72 73 73 73 74 76 76 74 76 72 72 73 72 73 74 73 73 71 69 69 70 73 75 75
57 58 55 56 54 58 67 69 73 54 55 72 74 72 71 66 66 69 71 70 71 71 71 72 72 72 72 73 72 70 71 70 71 72 74 74 74 73 73 72 74 74 71 73
56 53 53 56 53 49 70 68 60 63 69 70 69 70 69 68 69 69 69 68 68 67 68 70 69 69 71 71 70 68 67 69 70 71 70 72 72 74 75 72 72 72 73 73
51 57 54 54 53 65 69 66 69 70 66 67 66 68 68 68 68 68 67 67 67 67 66 67 66 66 67 66 65 62 63 65 67 67 69 69 71 72 72 71 70 73 74 74
62 66 56 58 61 65 66 69 71 71 68 69 70 68 68 67 68 67 67 66 65 65 64 64 63 62 62 63 64 64 64 65 65 65 67 69 69 71 71 73 75 75 75 76
62 64 59 58 63 65 67 68 69 70 70 70 70 69 68 67 66 66 65 64 64 63 63 62 60 60 60 62 62 63 62 63 60 63 65 67 71 71 73 72 74 74 74 72
66 61 56 54 65 64 65 68 70 67 67 69 68 67 69 68 65 64 63 63 62 61 61 59 59 58 58 58 58 60 59 61 59 59 63 65 66 69 72 74 73 65 57 56
MSLP
1003.87 1003.44 1002.03 1001.27 1000.59 999.65 998.87 998.99 999.59 1001.11 1002.33 1004.12 1005.26 1006.71 1007.99 1008.09 1008.16 1007.81 1007.64 1007.97 1008.34 1008.55 1009.03 1009.94 1010.51 1011.22 1012.18 1013.11 1014.01 1014.53 1015.15 1015.91 1016.64 1016.99 1016.93 1016.94 1017.61 1018.03 1018.08 1019.17 1018.85 1018.69 1018.62 1018.79
1002.95 1002.27 1001.21 1000.81 1000.12 999.60 998.79 998.41 999.25 1001.10 1002.26 1003.25 1005.99 1007.78 1008.11 1007.43 1007.83 1008.30 1008.21 1008.34 1008.79 1009.00 1009.06 1009.75 1010.43 1011.06 1011.95 1012.92 1013.93 1014.61 1015.31 1015.98 1016.45 1016.81 1016.79 1017.06 1017.73 1017.77 1017.77 1018.30 1018.52 1018.30 1018.59 1018.62
1001.78 1000.99 1000.87 1000.07 999.45 999.07 998.49 998.06 999.41 1001.15 1003.60 1001.55 1004.15 1008.12 1008.13 1007.27 1007.37 1008.51 1008.58 1008.57 1008.80 1009.01 1009.20 1009.35 1009.95 1010.63 1011.48 1012.63 1013.62 1014.42 1015.17 1015.87 1016.23 1016.43 1016.64 1017.55 1017.75 1018.36 1018.45 1018.47 1018.32 1018.13 1018.17 1018.38
1001.49 1000.28 999.97 999.58 999.06 998.71 998.11 997.93 998.23 1000.21 1001.25 1000.57 1001.43 1003.96 1005.94 1006.69 1008.19 1009.17 1008.40 1008.74 1008.55 1008.79 1008.93 1009.08 1009.57 1010.29 1011.00 1012.15 1013.20 1014.14 1014.92 1015.71 1016.05 1016.45 1016.46 1017.07 1018.41 1018.72 1018.31 1018.14 1018.06 1017.89 1017.85 1018.14
1000.57 1000.03 999.37 999.23 998.99 998.66 998.23 997.79 998.78 999.67 1000.16 999.54 999.96 1002.42 1004.08 1005.61 1008.10 1009.53 1008.35 1007.71 1008.07 1008.07 1008.27 1008.79 1009.33 1010.01 1010.49 1011.57 1012.58 1013.70 1014.59 1015.39 1015.75 1016.10 1016.69 1017.02 1017.69 1018.17 1018.07 1018.38 1017.88 1018.27 1017.67 1017.84
1000.17 1000.03 999.41 999.21 999.09 998.79 998.60 998.13 998.12 998.78 998.99 998.72 999.09 1000.52 1002.88 1005.37 1007.87 1008.03 1007.56 1007.13 1007.84 1008.02 1008.36 1008.94 1009.38 1009.56 1010.01 1011.05 1012.14 1013.29 1014.21 1014.90 1015.36 1015.78 1016.42 1016.95 1017.71 1018.11 1019.42 1019.18 1019.19 1018.63 1018.15 1018.19
1000.43 999.59 999.62 999.81 999.51 999.09 998.91 998.25 998.07 998.71 998.45 998.22 998.56 999.94 1003.15 1005.45 1007.42 1005.82 1006.23 1006.11 1007.84 1008.79 1008.82 1008.41 1008.93 1009.40 1009.86 1010.77 1011.77 1012.89 1013.90 1014.55 1014.98 1015.38 1015.66 1016.11 1016.83 1017.93 1019.35 1018.75 1018.97 1018.43 1018.07 1018.30
1000.16 999.78 999.84 999.69 999.30 998.81 998.92 998.26 998.00 998.22 998.41 998.63 998.63 1000.14 1002.07 1003.19 1003.87 1004.13 1004.87 1005.07 1006.88 1007.62 1008.15 1007.86 1008.32 1009.51 1010.50 1010.68 1011.31 1012.05 1013.07 1013.79 1014.40 1014.71 1015.00 1015.36 1015.96 1016.98 1017.39 1018.01 1017.85 1018.15 1017.76 1018.28
1000.06 999.53 999.48 999.55 999.53 999.28 999.12 998.65 998.17 997.95 998.33 998.67 1000.08 1002.16 1002.97 1003.45 1004.12 1004.69 1006.03 1007.29 1008.58 1008.63 1008.43 1009.80 1009.37 1009.58 1010.16 1010.66 1010.61 1010.94 1011.97 1012.47 1013.13 1013.78 1014.31 1014.54 1014.92 1015.59 1016.24 1016.76 1017.17 1017.30 1017.54 1018.25
1001.53 1000.61 999.39 1000.34 1000.34 1000.07 999.82 999.43 998.87 998.17 998.54 998.79 1000.63 1001.82 1002.74 1003.60 1004.57 1005.22 1007.36 1008.67 1009.41 1010.31 1011.31 1012.04 1012.70 1010.56 1011.82 1012.08 1010.28 1010.90 1011.45 1011.91 1012.03 1012.69 1013.36 1013.79 1014.20 1014.71 1015.25 1015.80 1016.22 1016.74 1017.37 1018.23
1002.69 1002.19 1001.34 1000.96 1000.87 1000.64 1000.69 1000.17 999.35 998.89 998.90 999.41 1001.80 1003.11 1003.07 1004.12 1005.82 1006.61 1007.93 1009.99 1010.76 1011.59 1012.71 1012.16 1012.20 1012.14 1012.48 1013.59 1012.24 1011.35 1011.77 1012.20 1011.95 1012.20 1012.77 1013.16 1013.43 1013.95 1014.63 1015.36 1015.87 1016.53 1017.09 1017.62
1002.90 1002.03 1001.62 1001.11 1001.23 1001.26 1000.50 1000.19 999.84 999.56 999.62 1000.13 1003.50 1005.91 1006.18 1005.85 1006.94 1008.18 1009.22 1010.27 1011.63 1012.37 1012.63 1012.94 1013.39 1013.93 1013.74 1013.05 1011.00 1014.37 1012.99 1012.84 1012.18 1012.43 1012.62 1012.77 1012.79 1013.07 1013.72 1014.59 1015.34 1016.13 1016.83 1017.04
1004.73 1002.71 1002.33 1001.59 1002.00 1001.69 1001.28 1000.62 999.92 999.69 999.87 1001.30 1004.10 1006.65 1008.25 1009.37 1008.79 1009.11 1010.07 1010.61 1011.11 1012.13 1012.65 1012.81 1012.74 1013.18 1013.73 1014.32 1014.82 1014.29 1013.95 1013.61 1012.42 1012.89 1012.36 1012.91 1012.71 1012.61 1013.05 1013.60 1014.57 1015.43 1016.22 1016.83
1005.64 1004.28 1003.98 1004.14 1003.08 1001.98 1001.88 1001.20 1000.61 1000.41 1000.59 1000.81 1002.97 1006.47 1007.81 1008.90 1008.82 1009.75 1010.86 1011.30 1011.43 1011.93 1012.50 1012.70 1012.83 1013.07 1013.62 1014.24 1014.76 1015.09 1015.01 1014.57 1013.27 1013.91 1013.83 1013.14 1013.08 1013.18 1012.88 1013.18 1013.73 1014.57 1015.44 1016.28
1005.64 1005.11 1004.89 1004.58 1004.09 1002.91 1001.88 1001.80 1001.40 1001.70 1002.13 1004.08 1006.12 1007.00 1008.40 1009.03 1009.91 1010.94 1011.85 1012.51 1012.50 1012.82 1013.36 1013.78 1013.72 1013.70 1013.63 1013.62 1013.56 1013.48 1013.35 1013.76 1014.17 1015.55 1014.46 1014.22 1013.68 1013.71 1013.54 1013.42 1013.21 1013.83 1014.64 1015.47
1006.17 1005.90 1005.97 1005.39 1005.11 1004.46 1003.13 1002.19 1002.19 1002.70 1003.21 1004.81 1006.80 1009.26 1009.79 1010.41 1011.03 1012.10 1012.68 1013.39 1013.56 1013.74 1014.07 1014.39 1014.63 1014.55 1014.28 1014.39 1014.38 1014.41 1014.35 1014.31 1014.93 1015.96 1016.17 1015.47 1013.91 1013.75 1014.35 1014.35 1014.23 1013.79 1014.13 1014.84
1007.16 1006.75 1006.71 1006.26 1005.88 1005.81 1005.07 1004.07 1003.99 1004.38 1004.71 1005.75 1007.64 1010.24 1009.95 1010.60 1011.68 1012.72 1013.66 1014.34 1014.61 1014.70 1014.96 1014.92 1015.06 1015.25 1015.22 1015.19 1015.54 1015.29 1015.20 1015.15 1014.89 1014.95 1015.86 1016.87 1016.33 1016.14 1013.41 1015.06 1015.33 1014.27 1014.42 1014.85
1007.77 1007.96 1007.77 1007.13 1006.84 1006.81 1006.05 1005.93 1005.29 1005.23 1005.67 1006.90 1007.41 1009.55 1010.37 1011.31 1012.59 1013.75 1014.63 1015.30 1015.58 1015.63 1015.77 1015.82 1015.86 1015.99 1015.89 1016.07 1016.35 1016.50 1016.17 1015.89 1015.87 1015.69 1015.38 1015.31 1015.73 1016.45 1016.39 1016.09 1015.87 1014.77 1014.81 1015.15
1008.43 1008.65 1008.39 1008.02 1007.40 1007.14 1006.92 1007.31 1006.77 1006.19 1006.80 1008.17 1009.35 1010.70 1011.49 1012.43 1013.74 1015.01 1015.68 1016.11 1016.38 1016.52 1016.55 1016.63 1016.67 1016.69 1016.66 1016.75 1016.82 1017.04 1016.81 1016.69 1016.52 1016.29 1016.04 1015.75 1015.51 1015.49 1015.64 1015.75 1015.49 1015.54 1015.54 1015.47
1009.17 1009.36 1009.16 1008.36 1007.89 1007.54 1007.57 1007.77 1007.89 1007.65 1008.21 1009.36 1010.53 1011.61 1012.45 1013.10 1013.86 1014.95 1015.95 1016.31 1016.77 1017.07 1017.20 1017.32 1017.47 1017.23 1017.31 1017.54 1017.56 1017.67 1017.49 1017.29 1017.32 1017.24 1016.99 1016.77 1016.68 1016.57 1016.32 1016.26 1016.08 1016.05 1016.00 1015.68
1010.21 1010.13 1009.77 1009.50 1008.96 1008.94 1009.40 1009.54 1009.34 1009.38 1010.46 1010.23 1011.14 1012.18 1013.21 1014.01 1015.15 1015.71 1016.45 1017.18 1017.57 1017.75 1017.85 1018.11 1018.00 1018.00 1018.11 1018.27 1018.42 1018.41 1018.25 1018.15 1018.26 1018.14 1017.67 1017.43 1017.32 1017.09 1016.74 1016.72 1016.62 1016.28 1016.04 1015.68
1010.74 1010.78 1010.37 1010.34 1009.88 1009.79 1010.34 1010.53 1010.73 1011.49 1011.64 1012.21 1012.89 1013.53 1014.37 1015.44 1016.04 1016.68 1017.32 1017.92 1018.38 1018.61 1018.75 1018.83 1018.83 1018.91 1018.97 1019.00 1019.01 1019.04 1019.08 1019.07 1018.89 1018.61 1018.45 1017.94 1017.71 1017.49 1017.21 1017.05 1016.85 1016.49 1016.04 1015.64
1011.83 1011.73 1011.42 1011.80 1011.55 1011.52 1011.51 1011.78 1012.31 1012.61 1013.25 1013.84 1014.44 1014.98 1015.53 1016.01 1016.43 1017.14 1017.69 1018.29 1018.91 1019.26 1019.71 1019.85 1019.83 1019.83 1019.93 1020.18 1020.35 1020.33 1020.25 1020.02 1019.60 1019.13 1018.65 1018.43 1017.94 1017.69 1017.40 1017.09 1016.81 1016.34 1015.67 1015.32
1011.95 1012.11 1012.37 1012.19 1012.26 1012.10 1012.55 1012.98 1013.17 1013.41 1014.14 1014.82 1015.27 1015.87 1016.29 1016.50 1017.11 1017.57 1018.13 1018.69 1019.34 1019.76 1020.12 1020.67 1020.85 1020.85 1020.94 1020.95 1020.88 1020.84 1020.60 1020.42 1019.99 1019.43 1018.91 1018.28 1017.92 1017.33 1017.21 1016.95 1016.37 1016.08 1015.71 1015.27
1012.72 1012.44 1012.52 1012.55 1012.39 1012.68 1013.01 1013.65 1014.03 1014.17 1014.76 1015.23 1015.82 1016.23 1016.58 1017.07 1017.59 1018.09 1018.71 1019.42 1019.88 1020.30 1020.76 1021.26 1021.50 1021.55 1021.57 1021.60 1021.49 1021.38 1021.18 1020.97 1020.68 1019.96 1019.25 1018.53 1017.86 1017.35 1016.72 1016.44 1016.20 1015.88 1015.67 1015.74
1012.75 1012.78 1012.61 1012.68 1012.44 1012.62 1012.92 1013.62 1014.31 1014.86 1015.29 1015.72 1016.20 1016.70 1017.09 1017.47 1018.04 1018.89 1019.38 1019.98 1020.51 1020.83 1021.15 1021.61 1021.82 1022.04 1022.21 1022.22 1022.09 1021.89 1021.85 1021.43 1021.27 1020.65 1019.68 1019.11 1018.47 1017.67 1016.85 1016.07 1015.62 1015.65 1015.61 1015.35
Wind_Speed
14 12 16 20 20 20 18 18 18 14 18 12 13 12 11 14 14 16 15 16 15 14 18 16 16 17 15 15 11 8 9 9 7 4 4 3 6 2 5 9 10 5 5 5
13 17 17 19 19 21 24 19 7 4 18 19 22 15 17 21 18 16 15 11 13 7 8 17 16 15 15 16 13 10 10 10 6 5 3 2 3 4 3 2 4 5 6 6
19 14 20 17 18 20 23 18 17 14 24 17 24 18 18 15 19 15 15 15 17 14 11 19 18 16 16 16 15 12 11 11 8 6 2 8 7 4 3 3 4 6 7 6
19 18 19 18 18 15 17 19 14 24 17 11 21 14 32 29 16 5 4 17 17 20 20 19 19 18 18 17 15 14 11 12 9 6 5 6 7 5 4 7 6 5 7 7
17 17 12 18 16 14 15 17 14 14 18 15 16 11 13 19 24 22 22 20 21 20 16 20 17 18 19 18 16 15 13 12 10 7 4 5 4 3 3 5 8 3 5 4
15 15 13 15 13 12 21 14 15 8 12 13 9 15 14 10 5 26 33 24 19 14 14 16 18 18 17 18 17 17 15 13 11 10 9 8 12 8 4 4 6 6 5 4
14 18 13 10 15 19 18 16 9 10 10 9 15 9 7 18 7 19 4 21 22 7 14 23 22 17 15 18 19 18 17 14 12 12 10 9 8 8 9 6 5 7 6 2
13 14 11 12 21 16 16 16 9 14 10 11 18 13 10 15 6 13 22 15 28 28 24 22 21 19 6 14 20 21 20 17 15 14 12 9 8 5 8 14 5 5 5 5
12 17 19 18 16 15 19 18 18 16 20 15 10 13 9 10 12 10 23 19 18 3 21 12 11 19 19 22 16 21 22 20 19 16 12 11 10 9 7 8 6 4 6 6
9 16 17 9 9 7 14 13 17 14 12 14 13 18 15 16 17 18 21 19 18 13 11 7 6 6 4 16 16 17 21 20 20 17 14 12 11 10 8 4 7 6 7 9
13 8 9 11 13 12 11 13 13 17 15 9 10 2 16 17 16 16 18 15 13 14 13 14 10 5 13 11 14 6 20 18 18 16 16 14 13 13 10 8 7 5 9 9
13 9 11 13 11 16 18 17 16 11 18 5 9 2 14 13 17 16 14 15 14 13 14 14 13 12 11 4 15 10 11 5 16 14 13 15 14 14 13 11 9 9 7 9
10 7 5 13 5 5 8 16 17 19 17 7 11 7 5 10 16 16 14 12 13 13 15 15 15 15 12 13 9 10 10 8 13 8 14 14 14 14 13 13 10 10 10 9
6 11 9 7 12 11 18 17 13 15 12 15 16 18 19 19 16 17 15 13 14 14 15 14 15 14 13 12 10 9 10 11 13 10 12 10 14 12 12 12 12 10 10 10
5 9 8 3 10 16 14 18 10 11 14 12 13 19 13 17 16 14 15 12 12 13 14 14 14 13 13 14 14 15 14 13 13 12 10 12 10 6 12 9 10 11 10 9
4 7 4 7 4 11 15 17 12 11 12 17 12 17 14 14 18 11 14 12 11 12 12 13 13 13 13 15 14 13 14 14 11 10 12 13 11 8 6 4 5 5 7 9
4 7 3 10 5 5 8 8 4 4 6 16 16 13 15 16 15 12 11 10 10 11 10 11 12 12 11 13 12 14 11 12 13 13 11 11 12 11 9 10 7 4 5 7
4 7 9 9 7 12 7 8 10 10 5 15 15 16 15 15 14 13 10 8 8 8 9 9 9 10 11 11 12 10 11 9 10 11 12 13 12 10 8 8 10 9 5 7
5 7 8 11 11 10 8 3 5 8 13 16 15 15 14 13 17 12 9 7 6 6 7 7 8 8 8 10 10 9 9 10 10 10 10 11 11 11 11 11 10 7 8 6
6 6 9 6 14 13 5 12 6 3 11 9 16 11 11 8 10 11 9 6 6 6 6 6 7 7 8 9 10 9 9 9 10 10 10 7 7 8 7 7 6 7 7 7
4 5 9 8 8 7 9 5 2 8 4 12 8 11 7 4 9 12 9 7 6 7 8 7 8 7 7 8 9 9 9 9 10 11 10 9 9 9 5 5 7 7 5 8
4 5 6 9 10 8 10 6 4 10 11 10 10 9 8 9 9 8 7 7 7 6 8 8 8 8 9 9 8 9 9 11 11 9 10 10 8 7 8 8 7 9 9 7
4 7 6 6 6 7 7 15 11 12 12 9 11 7 7 7 6 7 5 5 5 6 6 7 8 8 10 11 10 11 11 12 12 12 10 9 11 6 8 6 9 8 7 6
4 4 3 4 8 6 9 6 8 11 12 8 10 10 6 6 6 5 4 5 3 5 4 6 7 8 8 9 9 9 10 12 13 12 12 10 9 10 6 8 6 7 7 7
6 1 4 7 3 4 7 6 6 6 10 10 8 8 7 5 6 4 4 4 1 3 5 5 6 7 7 10 9 10 10 11 13 13 12 12 9 11 9 6 8 6 5 7
6 9 5 5 5 8 6 11 10 9 10 10 10 8 7 5 6 5 3 3 3 1 4 4 5 7 8 9 10 10 10 11 10 12 10 10 11 11 11 8 7 8 13 14
Wind_Direction
206 219 212 217 218 240 218 224 165 156 264 124 137 133 209 171 180 172 171 170 158 172 156 162 161 150 162 143 154 154 131 135 142 193 206 179 133 156 136 171 176 178 146 136
187 226 228 226 228 236 255 237 162 32 311 104 146 151 230 169 178 178 177 167 150 186 176 160 164 160 159 146 153 153 140 148 191 189 230 60 85 159 107 21 293 167 151 146
234 216 234 220 233 223 240 258 157 144 269 158 152 133 224 180 156 175 171 192 170 184 218 162 173 169 156 150 157 161 155 161 205 190 212 84 39 5 211 168 203 179 148 163
231 245 199 237 236 226 231 237 232 165 220 201 188 163 180 173 133 122 255 181 187 186 200 170 175 171 164 156 161 162 164 168 208 222 152 127 163 183 231 185 170 175 155 164
214 234 217 226 219 209 241 231 143 215 203 229 186 139 179 161 153 153 218 214 176 186 180 179 179 173 168 161 165 161 169 170 203 201 166 164 106 103 292 81 40 246 124 156
244 207 233 232 225 214 240 280 235 215 213 232 193 231 152 155 202 182 198 195 172 173 198 177 180 181 166 162 163 160 170 176 198 197 179 211 149 161 202 143 200 190 159 178
214 243 217 224 221 232 230 251 193 211 210 230 207 194 112 130 135 237 110 172 151 165 242 176 190 186 173 161 164 158 169 180 196 191 199 203 195 153 129 295 206 177 146 147
200 209 214 199 228 209 214 237 203 210 218 228 256 128 149 138 132 151 186 143 159 162 216 191 185 173 107 175 169 164 170 177 188 189 197 196 220 186 164 192 194 199 155 163
216 236 189 197 232 251 194 236 229 207 220 227 109 90 113 142 128 119 69 72 48 210 169 212 213 167 160 221 172 169 174 178 181 192 192 191 197 218 206 189 164 170 114 102
251 302 158 170 276 274 269 233 239 251 277 245 144 156 149 162 104 87 68 57 71 43 64 351 290 12 53 323 187 168 174 178 181 185 191 195 193 204 233 251 163 165 125 123
290 243 200 187 211 227 216 249 256 258 249 227 152 358 145 140 113 102 92 80 57 63 48 66 73 344 323 329 349 208 179 182 179 184 184 194 191 195 205 220 176 183 137 158
268 305 162 200 200 224 249 228 240 239 251 310 52 76 337 101 102 94 83 83 71 52 62 72 77 79 83 73 18 357 12 343 181 191 193 192 187 190 191 201 201 179 184 177
336 258 199 153 176 229 245 246 253 245 254 158 156 169 158 121 98 96 86 79 66 59 55 54 55 67 59 64 59 28 28 34 354 328 189 198 195 187 190 187 197 191 186 190
284 294 57 323 317 280 213 238 244 266 277 269 137 157 143 117 106 105 99 89 78 60 50 48 52 51 55 50 61 70 47 40 34 17 5 256 196 202 192 186 185 194 186 192
267 265 319 153 290 327 211 222 228 250 274 80 98 142 135 122 118 111 107 95 83 70 61 54 43 39 39 40 42 30 24 38 50 38 27 330 2 260 196 198 179 183 193 190
298 301 322 274 260 312 323 197 210 238 272 136 111 92 103 109 109 121 114 108 90 78 64 57 51 39 37 37 29 45 32 24 41 47 34 8 23 13 287 210 226 203 198 201
301 273 215 252 210 309 276 286 159 274 290 128 138 165 129 126 112 101 100 95 91 79 60 50 52 39 34 47 35 14 43 34 23 24 30 46 35 26 18 7 314 258 243 243
237 269 274 269 279 222 248 13 318 214 206 84 131 141 132 125 120 109 104 100 83 70 61 45 39 36 27 32 36 22 17 33 39 24 17 15 29 43 22 12 7 7 316 261
254 262 252 256 231 237 156 192 238 247 113 115 128 142 123 141 116 120 114 101 91 74 63 35 33 11 30 13 28 17 19 5 28 27 20 14 11 9 8 9 3 345 339 311
267 246 273 252 247 248 10 101 41 350 152 116 141 152 152 178 182 150 137 101 70 49 40 24 11 351 18 10 10 4 7 359 20 3 6 12 13 1 353 344 338 329 316 306
224 262 239 239 261 117 129 105 119 180 102 137 156 146 128 142 56 98 100 85 65 45 32 6 3 356 11 4 6 352 352 3 359 345 341 347 357 336 309 322 335 319 317 306
232 204 231 244 246 227 132 152 237 89 103 112 86 108 116 110 125 118 107 98 74 49 31 17 12 6 357 355 354 354 356 355 343 334 328 325 330 333 335 330 321 311 302 292
291 36 322 25 36 82 36 96 119 120 123 125 118 117 134 152 135 122 118 100 71 66 43 13 11 5 12 13 4 350 343 334 327 322 316 313 310 302 297 307 296 289 283 271
264 274 292 335 155 143 102 94 115 136 133 130 139 139 182 147 134 133 129 96 56 55 41 36 9 7 5 359 351 342 334 334 327 312 306 297 298 291 278 285 289 298 297 303
269 265 243 262 246 123 133 155 150 134 136 153 146 155 144 155 129 106 102 113 125 56 39 19 4 353 346 353 343 337 334 341 331 322 320 311 291 287 279 255 280 272 292 293
205 249 228 253 249 198 200 177 163 163 171 163 168 160 160 147 126 110 113 76 63 43 19 357 348 350 343 341 338 343 350 341 335 322 324 329 324 323 313 304 273 274 270 270